Regional Weather Roundup
Issued by NWS Cleveland, OH

Home | Current Version | Previous Version | Graphics & Text | Print | Product List | Glossary On
Versions: 1 2 3 4 5 6 7 8 9 10 11 12 13 14 15 16 17 18 19 20 21 22 23 24 25 26 27 28 29 30 31 32 33 34 35 36 37 38 39 40 41 42 43 44 45 46 47 48 49 50
000
ASUS41 KCLE 160400
RWRCLE
OHIO REGIONAL WEATHER ROUNDUP
NATIONAL WEATHER SERVICE WILMINGTON, OH
1200 AM EDT TUE SEP 16 2014

NOTE: "FAIR" INDICATES FEW OR NO CLOUDS BELOW 12,000 FEET WITH NO
SIGNIFICANT WEATHER AND/OR OBSTRUCTIONS TO VISIBILITY.

OHZ001>008-015>018-024>027-034-035-043-044-160500-
   NORTHWEST OHIO

CITY           SKY/WX    TMP DP  RH WIND       PRES   REMARKS
DEFIANCE       MOCLDY    52  51  97 SW3       30.12S FOG
FINDLAY        CLOUDY    55  53  93 MISG      30.10S
TOLEDO EXPRESS MOCLDY    53  52  96 SW5       30.10S
TOLEDO METCALF MOCLDY    54  51  90 W6        30.11S
LIMA           CLOUDY    55  53  93 N8        30.12S FOG
$$

OHZ009>014-019>023-028>033-038-089-160500-
   NORTHEAST OHIO

CITY           SKY/WX    TMP DP  RH WIND       PRES   REMARKS
CLE-HOPKINS    LGT RAIN  56  54  93 W3        30.10S FOG
CLE-LAKEFRONT  LGT RAIN  57  51  80 NW10      30.07S
CUY CO. ARPT   NOT AVBL
LORAIN-ELYRIA  LGT RAIN  59  54  83 W5        30.09F
ASHTABULA      LGT RAIN  54  53  97 CALM      30.09S
AKRON-CANTON   LGT RAIN  57  53  86 N6        30.08S
WOOSTER        LGT RAIN  55  54  94 N5        30.09S FOG
MANSFIELD      RAIN      55  54  96 NW6       30.09S FOG
YOUNGSTOWN     LGT RAIN  56  54  93 N6        30.06F FOG
$$

OHZ042-051>053-060>062-070>072-077>081-160500-
  SOUTHWEST OHIO

CITY           SKY/WX    TMP DP  RH WIND       PRES   REMARKS
CINC-COVINGTON CLOUDY    60  57  89 N8        30.10R
CINC-LUNKEN    CLOUDY    60  59  96 NE6       30.12R
HAMILTON       LGT RAIN  58  58 100 CALM      30.13R FOG
DAYTON         NOT AVBL
WRIGHT-PAT AFB CLOUDY    57  57 100 W3        30.12R
DAYTON GENERAL LGT RAIN  58  56  93 NW3       30.11S FOG
WILMINGTON     LGT RAIN  57  56  96 NW9       30.12S FOG
$$

OHZ036-037-039>041-045>050-054>059-063>069-073>076-082>088-160500-
  CENTRAL AND SOUTHEAST OHIO

CITY           SKY/WX    TMP DP  RH WIND       PRES   REMARKS
COLUMBUS       CLOUDY    64  53  67 N10       30.08R
OSU AIRPORT    LGT RAIN  59  55  87 N9        30.10R
BOLTON FIELD   NOT AVBL
RICKENBACK AFB NOT AVBL
NEWARK         CLOUDY    61  53  75 NW5       30.08R
MARION         LGT RAIN  55  54  96 N5        30.11R FOG
LANCASTER      CLOUDY    62  52  69 VRB5      30.09R
ZANESVILLE     CLOUDY    58  52  80 W3        30.07S
NEW PHILLY     CLOUDY    59  54  83 NW6       30.08R
$$



USA.gov is the U.S. government's official web portal to all federal, state and local government web resources and services.